FREGAT R/B, 40352

Orbit data source: Space-Track

FREGAT R/B, 40352 is space debris originally from a launch on Thu, 18 Dec 2014 UTC launched from the French Guiana (FRGUI). Debris objects in space refer to the collection of defunct objects orbiting the Earth. Examples of debris include non-operational satellites, rocket bodies, and fragments generated from explosions, collisions, or faulty payload assembly.

Loading next visibility...
Identifier
40352, 2014-083E
Orbit
Active
Country
Flag of CISCIS
Related business
Manufacturer
Lavochkin
Mission
Spacecraft
Bus & Motor
FREGAT, Unknown motor
Mass
1,050 kg wet, 1,050 kg dry
Launch date (UTC)
2014-12-18 (11 years ago)
Launch vehicle
Unknown
Launch site
French Guiana (FRGUI)
Object type
Payload
Rocket body
Debris
Shape & HBR
Irr, 1.6 m
Radar Cross Section
11.055 m², Large (>1 m²)

Expand to show TLE details & history
Last TLE update: 21 hours ago

TLE from 21 hours ago
0 FREGAT R/B
1 40352U 14083E   25297.71824973 -.00000018  00000-0  00000+0 0  9995
2 40352   0.1030 310.0074 0009015 279.7206 130.2000  5.20672578206425
Epoch: 2025-10-24T17:14Z
TLE epoch observation values (Epoch: 2025-10-24T17:14:16.776Z)
Latitude
0.08308°
Longitude
68.07089°
Altitude
7,689.786 km
Speed
5.322 km/s
True Right ascension
23h 59m 59s
True Declination
0° 04' 58"
Sunlit
Object was in daylight at epoch
Visualization orbit readout
Latitude
Unknown
Longitude
Unknown
Altitude
Unknown
Speed
Unknown
Apparent Right ascension
Unknown
Apparent Declination
Unknown
Sunlit
N/A
Visualization observer readout
Local Sidereal Time
09:38:06
Azimuth
Unknown
Elevation
Unknown
Doppler factor
Unknown
Orbital elements
Apogee altitude
7,698.98 km
Perigee altitude
7,673.622 km
Semi-major axis
14,064.438 km
Eccentricity
0.0009
Inclination
0.103°
RAAN
310.0074°
Arg. of periapsis
279.7206°
True anomaly
130.27885°
Mean anomaly
130.2°
Eccentric anomaly
130.23943°
Mean motion
1.30125 °/min
Orbital period
276.66 mins
BSTAR
0
Loading maneuver chart data...
Computing Atmospheric mass density...
Loading historical data...
Loading historical data...
Loading historical data...
Loading historical data...
Loading historical data...
Loading historical data...
Loading historical data...
Other satellites on launch #83 in the year 2014 (2014-12-18 UTC)

Documentation

Showing up to 5 results
|